This is the latest recevied weather packets stored in our database for station/object CE3JSG-13. If no packets are shown the sender has not sent any weather packets the latest 10 day(s).
| Time | Temp. | Humidity | Pressure | Rain* | Wind** | Luminosity | Snow |
|---|---|---|---|---|---|---|---|
| 1777792036 | 13.33° C | 70% | 1018.1 hPa | - | - | - | - |
| 1777791616 | 13.33° C | 69% | 1018.4 hPa | - | - | - | - |
| 1777791196 | 13.33° C | 68% | 1017.4 hPa | - | - | - | - |
| 1777790775 | 13.33° C | 68% | 1017.7 hPa | - | - | - | - |
| 1777790356 | 13.89° C | 67% | 1017.2 hPa | - | - | - | - |
| 1777789936 | 13.33° C | 67% | 1017.5 hPa | - | - | - | - |
| 1777789516 | 13.89° C | 67% | 1017.3 hPa | - | - | - | - |
| 1777789096 | 13.33° C | 67% | 1017.5 hPa | - | - | - | - |
| 1777788676 | 13.89° C | 66% | 1017.6 hPa | - | - | - | - |
| 1777788256 | 13.89° C | 66% | 1017.7 hPa | - | - | - | - |
| 1777787836 | 13.89° C | 65% | 1017.4 hPa | - | - | - | - |
| 1777787415 | 13.89° C | 65% | 1017.5 hPa | - | - | - | - |
| 1777786996 | 13.89° C | 65% | 1017.6 hPa | - | - | - | - |
| 1777786576 | 13.89° C | 64% | 1018 hPa | - | - | - | - |
| 1777786156 | 14.44° C | 63% | 1017.6 hPa | - | - | - | - |
| 1777785735 | 14.44° C | 61% | 1017.5 hPa | - | - | - | - |
| 1777785316 | 14.44° C | 59% | 1018.1 hPa | - | - | - | - |
| 1777784895 | 15° C | 58% | 1018 hPa | - | - | - | - |
| 1777784476 | 15° C | 56% | 1017.8 hPa | - | - | - | - |
| 1777784056 | 15.56° C | 56% | 1018 hPa | - | - | - | - |
| 1777783636 | 15.56° C | 55% | 1018.4 hPa | - | - | - | - |
| 1777783216 | 16.67° C | 54% | 1017.7 hPa | - | - | - | - |
| 1777782796 | 16.67° C | 51% | 1017.6 hPa | - | - | - | - |
| 1777782376 | 16.67° C | 50% | 1017.6 hPa | - | - | - | - |
| 1777781956 | 17.22° C | 49% | 1017.4 hPa | - | - | - | - |
* Rain since midnight (hover to see other rain measurements)
** Current wind speed in m/s (hover to see current wind gust speed)